Wetbulb
52.69 53.10 55.33 57.26 57.46 56.59 56.86 56.89 57.23 55.29 57.30 57.14 56.91 56.79 56.98 57.17 57.41 57.88 58.26 58.78 59.30 60.11 60.65 60.73 60.56 59.93 58.84
49.79 48.98 52.85 55.57 57.56 56.44 56.75 56.69 57.12 54.48 55.81 56.46 56.60 56.49 56.38 56.17 55.79 55.89 55.92 56.34 56.89 57.69 58.62 59.33 59.68 59.72 59.63
48.40 47.39 48.92 50.59 53.21 53.59 55.33 56.18 56.39 53.23 54.93 55.29 55.82 55.79 55.55 55.38 55.01 54.69 54.19 54.14 54.40 54.67 55.38 56.42 57.42 58.28 58.76
46.85 45.93 46.94 46.38 49.61 51.44 49.65 51.72 53.30 53.78 53.43 53.58 54.43 54.43 55.01 55.30 54.17 52.69 52.26 52.54 53.64 54.16 53.73 53.21 53.43 54.94 56.42
48.82 45.34 45.37 44.15 49.07 47.51 49.69 48.34 50.30 50.93 51.63 52.21 52.92 53.33 53.43 53.56 52.61 50.94 51.28 51.92 52.28 53.00 53.41 53.40 52.81 53.08 54.23
50.54 49.06 49.12 49.35 47.76 48.62 49.14 45.59 46.59 49.71 50.91 51.15 51.96 51.79 52.53 52.74 52.27 51.74 51.23 51.46 51.59 51.86 51.97 52.25 52.03 51.96 52.43
51.12 51.25 50.90 50.67 49.61 47.68 48.61 47.29 46.44 46.79 48.72 48.52 45.31 49.20 48.93 48.52 50.14 50.54 50.76 50.64 50.46 50.38 50.05 49.90 50.08 50.53 50.89
53.28 53.76 53.64 53.04 51.13 51.63 50.02 48.44 45.55 44.88 45.52 43.56 42.22 43.96 44.88 45.75 48.43 49.08 49.24 49.16 48.81 48.80 48.99 49.20 49.25 49.53 49.98
50.92 50.54 49.90 50.15 51.35 50.35 47.40 47.10 44.18 43.84 44.53 44.68 41.48 41.07 39.67 40.76 41.40 46.88 46.88 46.78 47.58 48.57 48.81 48.72 48.46 48.67 48.98
51.61 50.16 50.09 50.03 49.10 52.73 50.10 48.36 41.69 40.32 41.20 44.61 37.85 39.09 36.26 35.69 36.19 36.95 40.98 43.91 44.44 45.17 47.51 48.68 48.34 46.45 45.52
52.34 52.50 51.66 51.50 51.56 52.61 51.77 51.57 43.12 41.67 42.82 41.85 35.20 34.14 33.77 35.00 32.82 33.01 34.05 36.22 38.77 41.03 45.03 47.03 47.80 46.59 42.28
51.04 50.96 50.45 50.43 50.18 50.90 49.87 49.30 47.58 46.17 44.32 40.18 34.32 35.79 34.65 31.95 35.53 33.16 32.14 34.82 35.75 36.53 37.72 42.11 47.03 47.46 45.31
49.17 48.37 48.52 49.32 45.06 38.02 36.76 36.53 35.27 37.05 41.66 39.41 37.26 36.96 35.68 35.12 35.14 33.39 31.71 33.58 34.22 34.77 35.41 36.22 37.61 39.29 40.50
47.35 45.78 39.47 40.34 41.39 37.98 34.56 34.56 34.07 32.30 32.66 35.80 37.29 37.58 34.77 34.74 35.32 33.28 33.11 33.70 32.38 32.87 33.76 33.87 34.57 34.80 35.03
43.38 40.32 40.21 39.29 34.79 34.98 34.25 33.72 33.47 32.86 30.73 31.06 32.91 34.27 34.08 33.96 33.19 33.38 32.76 32.43 31.93 31.78 31.59 31.45 32.27 33.16 33.37
42.67 40.99 39.30 38.27 35.47 33.42 33.09 34.48 35.32 33.54 31.10 29.94 31.49 32.11 32.14 32.11 34.59 32.35 31.76 32.00 30.70 30.31 29.78 31.01 30.27 31.00 31.06
40.94 39.68 38.44 36.57 35.66 34.45 34.70 34.99 32.91 32.59 31.62 30.94 32.36 32.56 32.05 31.70 28.47 31.93 30.42 29.18 28.69 28.51 29.01 29.10 28.62 26.80 27.11
MSLP
1016.93 1017.49 1018.16 1018.55 1018.87 1019.16 1019.49 1019.84 1020.18 1020.56 1020.90 1021.26 1021.61 1021.97 1022.38 1022.75 1023.08 1023.37 1023.64 1023.83 1024.07 1024.15 1024.33 1024.70 1024.99 1025.14 1025.54
1016.51 1017.06 1017.32 1017.62 1017.90 1018.47 1018.72 1019.09 1019.43 1019.83 1020.20 1020.57 1020.91 1021.14 1021.53 1021.97 1022.35 1022.73 1023.09 1023.21 1023.39 1023.54 1023.73 1023.79 1023.99 1024.31 1024.54
1015.60 1016.30 1016.73 1016.97 1017.58 1018.03 1018.23 1018.37 1018.75 1019.15 1019.52 1019.77 1020.22 1020.50 1020.67 1021.10 1021.41 1021.76 1022.20 1022.51 1022.67 1022.87 1023.13 1023.26 1023.44 1023.66 1023.79
1014.51 1015.25 1015.73 1016.18 1016.67 1017.44 1017.92 1017.94 1018.19 1018.64 1019.07 1019.19 1019.49 1019.70 1019.93 1020.22 1020.37 1020.86 1021.22 1021.53 1021.93 1022.16 1022.41 1022.54 1022.76 1022.95 1022.98
1013.49 1014.29 1014.78 1015.40 1015.69 1016.15 1016.77 1017.05 1017.63 1017.93 1018.36 1018.76 1019.07 1019.18 1019.38 1019.45 1019.77 1020.11 1020.46 1020.74 1021.09 1021.26 1021.50 1021.68 1022.01 1022.24 1022.31
1011.88 1012.14 1012.71 1013.32 1014.11 1014.90 1015.78 1016.65 1017.38 1016.79 1017.54 1017.91 1018.28 1018.68 1018.36 1018.56 1018.76 1019.29 1019.56 1019.90 1020.27 1020.40 1020.58 1020.75 1021.06 1021.33 1021.62
1009.82 1010.41 1011.28 1012.07 1013.02 1013.80 1014.51 1015.09 1015.60 1016.00 1016.54 1017.51 1017.82 1017.89 1017.74 1017.92 1018.22 1018.45 1018.74 1019.06 1019.39 1019.60 1019.81 1020.04 1020.22 1020.60 1020.72
1008.52 1009.14 1009.61 1010.73 1011.60 1012.34 1013.17 1014.30 1015.23 1015.60 1015.96 1016.96 1017.25 1017.48 1017.30 1017.36 1017.66 1017.95 1018.12 1018.38 1018.66 1018.94 1019.22 1019.30 1019.57 1019.82 1020.08
1007.21 1008.25 1008.91 1009.48 1010.39 1011.84 1013.13 1014.23 1015.05 1015.35 1015.74 1016.08 1016.88 1017.29 1017.57 1017.48 1017.33 1017.52 1017.72 1018.09 1018.44 1018.63 1018.67 1018.91 1019.09 1019.38 1019.55
1007.07 1007.58 1008.19 1009.05 1009.71 1010.11 1011.40 1012.58 1013.73 1014.78 1014.79 1015.51 1016.41 1016.92 1017.58 1017.27 1017.37 1017.49 1017.71 1017.98 1018.30 1018.21 1018.37 1018.47 1018.72 1018.96 1019.23
1005.69 1006.49 1007.41 1008.17 1009.04 1009.48 1010.13 1010.82 1012.02 1012.75 1012.97 1013.86 1015.48 1016.36 1016.55 1017.00 1017.20 1017.33 1017.61 1017.91 1018.17 1018.01 1017.95 1018.10 1018.26 1018.40 1019.03
1004.33 1005.14 1006.06 1006.89 1007.67 1008.60 1009.15 1009.66 1010.23 1010.74 1011.70 1012.65 1014.17 1014.92 1015.98 1017.07 1016.94 1017.19 1017.44 1017.54 1017.76 1017.75 1017.81 1017.86 1017.82 1018.01 1018.32
1003.22 1003.75 1004.61 1005.42 1006.69 1008.00 1008.86 1009.64 1010.74 1011.28 1011.44 1012.22 1012.84 1014.19 1015.05 1015.68 1016.19 1016.65 1017.10 1017.25 1017.52 1017.64 1017.85 1018.01 1018.04 1018.08 1018.30
1002.22 1003.46 1004.29 1005.22 1006.29 1006.84 1008.51 1009.77 1011.05 1012.27 1012.57 1012.42 1012.79 1013.32 1014.49 1015.05 1015.35 1016.43 1016.65 1017.12 1017.45 1017.74 1017.82 1018.19 1018.36 1018.44 1018.46
1001.40 1002.44 1003.84 1004.83 1005.69 1006.53 1007.66 1009.30 1010.44 1011.59 1012.67 1013.13 1013.26 1013.63 1014.15 1014.66 1015.50 1015.88 1016.39 1016.88 1017.13 1017.67 1017.98 1018.22 1018.39 1018.62 1018.82
1000.62 1001.83 1002.82 1004.23 1005.42 1006.54 1007.47 1008.45 1009.46 1010.51 1011.60 1012.61 1013.38 1014.01 1014.78 1015.38 1015.32 1015.66 1016.10 1016.74 1017.16 1017.50 1017.90 1018.31 1018.56 1018.79 1018.95
999.83 1000.98 1002.13 1003.51 1004.97 1005.94 1006.86 1007.76 1009.15 1010.19 1011.08 1011.76 1012.57 1013.24 1014.41 1015.16 1016.07 1016.11 1016.18 1016.80 1017.28 1017.86 1018.02 1018.28 1018.77 1019.14 1019.12
Wind_Speed
5 6 8 13 10 9 9 11 10 20 22 19 18 15 14 14 13 12 12 12 13 14 16 24 24 26 24
6 5 9 13 14 10 9 8 9 12 19 19 20 19 16 16 13 13 13 14 14 14 12 13 16 21 23
6 3 3 4 5 4 7 9 8 9 16 17 17 16 16 15 13 13 13 12 14 14 13 13 13 15 16
5 4 4 3 4 7 5 6 9 7 9 9 12 14 16 16 15 14 14 12 12 13 12 12 13 14 15
8 4 4 4 11 5 6 4 5 4 5 5 5 6 7 12 10 14 13 12 13 14 13 13 12 13 14
13 14 14 10 5 7 7 4 5 7 6 6 6 7 6 7 13 14 15 14 13 13 13 13 12 12 13
18 16 15 12 10 8 10 6 5 4 6 7 5 7 4 5 11 14 14 13 13 12 12 12 12 13 13
17 16 16 13 14 13 11 6 4 3 4 5 4 5 2 3 10 13 12 12 12 13 12 12 11 11 11
19 14 13 17 14 9 6 8 3 4 5 4 3 3 2 3 4 9 8 7 8 10 11 11 10 10 9
13 13 15 16 21 16 11 11 4 2 5 7 4 4 1 2 1 2 2 8 8 6 8 9 10 3 3
15 11 10 12 13 12 13 11 8 4 7 6 3 3 1 3 2 3 4 3 3 3 8 8 10 8 4
13 13 12 11 11 12 12 8 6 5 12 7 5 5 4 1 3 3 3 3 3 2 2 3 8 13 9
13 11 12 11 9 6 7 9 7 5 6 5 5 5 4 4 3 3 3 3 3 3 1 2 1 1 4
11 9 6 8 7 6 4 4 4 2 5 3 5 6 4 2 4 3 2 3 2 2 3 1 1 1 1
8 10 8 8 4 4 4 4 4 6 4 2 5 6 5 4 3 2 3 3 3 3 2 1 1 1 1
10 10 10 9 8 4 3 5 6 6 6 4 5 3 3 4 9 3 3 3 2 3 2 2 2 2 2
12 12 11 9 11 8 7 7 5 4 5 5 6 3 5 4 2 14 3 2 3 2 2 1 2 2 1
Wind_Direction
200 182 190 213 212 205 205 203 210 213 215 215 221 224 222 227 221 227 239 245 250 248 238 232 231 233 231
183 180 196 210 217 201 209 208 211 204 210 216 222 225 222 225 220 220 227 234 237 244 247 240 240 238 247
191 145 176 168 187 210 213 217 213 196 204 211 219 217 216 221 219 215 220 225 229 233 240 243 248 252 258
175 162 166 166 156 194 201 210 215 209 217 208 209 216 217 218 213 209 215 220 225 231 231 231 235 241 245
198 161 168 160 192 169 199 168 204 172 194 209 208 209 222 219 222 213 215 214 219 224 226 230 231 235 240
209 210 199 193 163 180 178 156 202 188 183 222 181 211 217 206 204 203 206 213 215 219 222 225 230 234 239
203 208 206 200 182 175 189 185 190 160 157 219 170 223 203 197 205 206 209 211 216 220 221 225 231 237 237
207 204 202 189 185 196 189 161 62 117 140 181 163 217 187 200 211 217 217 217 219 223 229 230 231 234 240
199 188 172 163 160 132 154 166 185 194 201 142 190 180 197 235 207 205 201 209 226 228 228 229 228 231 247
208 188 170 172 171 181 168 186 159 148 211 174 151 148 264 236 231 201 179 221 229 230 236 229 227 207 213
197 199 187 180 191 191 181 186 168 194 180 139 153 157 139 154 206 195 178 200 220 235 237 236 226 184 180
193 196 191 186 182 183 179 180 187 171 158 147 150 153 145 137 184 157 180 198 193 193 196 267 247 198 178
197 187 183 180 159 118 81 94 75 56 147 157 136 154 143 168 162 171 137 196 183 169 165 192 203 184 182
184 168 128 145 160 142 122 131 110 88 29 90 143 140 134 139 125 151 152 162 132 181 142 133 131 42 95
161 157 157 151 135 137 115 126 135 150 140 68 67 84 60 127 123 135 147 143 136 137 116 115 40 42 36
163 167 160 161 150 131 116 147 157 153 143 135 144 104 81 55 36 130 111 123 123 114 101 130 89 45 63
166 162 160 148 151 160 149 143 123 128 132 139 155 130 151 159 99 32 113 106 112 100 104 111 124 165 99